Wind_Speed
15 16 17 17 15 13 11 8 8 9 8 8 9 6 5 5 6 7 5 7 10 10 13 17 18 18 15 12 15 18 18 18 17 13 16 20 21 19 13 10 12 14
15 14 13 13 13 13 13 10 8 8 6 5 6 5 3 4 7 6 6 7 7 9 15 18 14 13 14 15 18 20 19 19 18 17 19 20 18 16 13 12 13 15
16 15 13 13 12 11 11 11 9 8 6 4 5 6 4 4 3 4 7 8 10 13 16 15 9 8 14 18 20 21 19 18 18 19 19 17 16 14 12 12 12 14
17 16 14 13 13 9 7 9 9 6 5 5 6 6 6 5 3 2 8 12 12 9 10 12 10 10 16 20 20 20 17 16 18 18 16 14 13 11 9 9 10 12
17 16 15 12 12 11 8 8 8 5 4 5 6 5 7 9 7 5 6 8 7 5 9 13 13 14 19 20 20 20 17 17 18 17 14 12 11 11 10 9 9 9
18 16 15 13 12 13 11 9 8 7 6 5 6 7 10 11 9 10 10 8 7 10 14 15 15 16 19 20 20 20 18 18 17 14 12 11 10 11 11 9 9 10
18 17 15 14 13 13 12 9 8 8 6 5 8 12 13 11 11 13 14 11 10 13 14 15 17 19 20 20 20 19 18 17 15 13 12 12 11 12 13 11 12 13
18 17 17 17 15 13 11 10 8 7 7 8 10 12 12 13 14 14 13 12 11 11 12 15 18 20 20 20 19 19 17 16 14 12 12 12 11 13 14 13 15 16
18 20 20 18 15 12 11 9 8 8 10 12 13 13 14 14 14 13 11 11 10 10 12 15 17 18 18 19 18 18 17 16 14 12 13 13 12 13 15 16 16 17
15 21 22 17 14 13 10 9 10 12 16 15 13 13 14 12 11 11 10 11 10 10 13 16 17 17 17 18 18 18 18 16 14 13 14 15 14 14 16 17 17 16
13 18 20 15 13 12 11 12 13 13 15 15 14 14 13 11 10 11 9 10 11 12 14 15 16 16 17 17 17 17 17 15 14 14 15 16 16 15 15 15 16 16
16 17 18 15 13 12 13 16 15 13 14 14 14 14 14 12 11 10 8 8 10 13 14 14 15 16 16 17 16 16 16 15 14 15 15 16 16 15 13 13 15 15
19 19 19 17 15 15 17 17 17 17 16 15 15 14 14 12 10 9 8 7 9 11 12 13 14 15 15 15 14 14 14 14 14 14 15 14 13 13 13 12 13 15
20 20 20 18 18 20 20 17 16 17 15 14 14 13 12 10 10 9 7 7 9 10 11 12 12 13 14 14 13 12 12 12 13 14 15 13 12 12 12 12 11 13
22 20 19 19 20 21 20 17 15 14 13 13 13 12 10 10 9 8 7 7 9 9 10 10 11 12 13 12 10 10 10 11 12 13 13 12 11 10 10 11 11 11
23 21 20 21 22 21 19 16 14 13 13 13 12 11 9 8 8 7 7 7 8 9 9 9 10 12 12 11 9 8 9 10 11 11 11 10 10 10 9 10 10 11
23 22 22 22 22 20 19 17 15 13 13 12 10 9 8 8 8 7 6 7 7 8 8 8 10 11 11 9 8 7 8 9 9 8 9 10 10 10 10 10 11 11
23 23 23 23 22 20 19 17 16 14 13 11 10 9 9 9 8 7 6 6 6 6 6 7 9 10 9 7 6 6 7 8 8 7 8 9 9 10 11 12 11 11
24 24 24 23 22 21 19 18 16 14 12 11 10 10 10 9 8 7 6 5 5 5 5 6 8 8 7 6 5 5 5 8 8 8 8 10 11 12 13 14 13 11
24 25 25 23 22 21 20 18 16 14 13 12 11 10 10 10 9 7 5 4 3 3 3 5 6 6 5 4 5 5 6 8 8 8 11 13 14 15 14 14 14 14
25 25 24 23 22 22 20 18 16 14 14 12 11 12 12 11 9 7 5 3 2 1 2 3 5 4 4 4 5 5 7 9 10 11 14 15 15 15 14 14 14 15
26 25 24 24 23 22 21 18 16 16 14 13 13 14 13 11 9 7 5 4 3 1 1 3 3 3 3 4 5 6 8 11 12 13 13 13 14 14 14 14 15 16
26 25 25 24 24 23 21 19 18 17 15 14 15 15 14 11 9 7 5 4 4 3 2 3 3 3 4 4 5 6 9 11 11 12 13 13 14 14 14 15 16 16
26 25 25 24 24 23 21 20 19 17 16 16 16 15 14 12 10 8 6 6 6 4 4 3 3 4 5 5 5 7 10 11 10 11 13 13 13 12 13 15 15 16
25 25 24 24 24 23 22 21 20 19 18 17 16 15 14 12 10 9 8 7 7 6 5 4 4 4 5 6 6 8 10 10 7 8 9 9 9 10 13 14 15 16
24 24 24 24 24 23 23 22 21 20 19 18 17 16 14 12 11 9 8 8 8 8 6 5 5 5 5 6 7 9 11 10 7 7 9 6 5 8 12 14 15 16
Wind_Direction
194 198 194 190 185 177 181 196 198 198 207 215 224 235 217 206 240 262 266 272 276 287 293 291 296 301 305 308 312 322 326 323 326 321 308 310 314 317 321 317 308 298
189 195 193 194 191 176 175 188 203 214 207 206 234 231 212 269 292 278 237 231 253 280 284 288 298 303 306 313 320 330 334 327 325 323 322 323 322 324 325 318 315 307
185 190 190 193 196 186 180 185 192 207 201 203 240 231 226 268 276 242 243 256 277 288 289 298 315 309 308 318 326 335 335 330 330 330 330 331 331 339 344 343 341 325
185 189 190 190 197 200 194 187 190 204 207 214 233 229 227 239 230 289 305 300 298 303 301 307 319 314 314 323 330 336 339 336 335 335 337 341 345 350 350 346 343 335
187 188 190 190 195 196 193 191 198 211 204 212 235 238 232 237 235 249 288 307 316 302 286 299 315 318 321 329 335 340 346 343 341 346 352 356 354 348 343 335 334 349
189 188 188 192 197 196 194 196 199 205 212 225 227 213 218 233 250 262 270 279 278 275 287 307 322 325 329 337 342 347 351 348 352 360 357 353 349 347 350 348 349 1
190 191 189 191 195 193 193 200 208 209 217 225 206 202 220 249 271 277 279 278 273 283 301 319 328 333 339 343 347 352 354 352 359 3 349 347 356 359 1 7 13 13
193 192 192 197 201 197 193 198 210 211 211 222 222 225 244 265 274 277 283 289 292 302 315 327 335 338 343 347 350 354 356 356 359 355 346 355 13 14 10 17 23 21
200 196 196 203 202 196 197 201 209 209 208 218 230 244 257 264 272 279 283 288 297 311 323 334 341 341 344 349 351 354 355 353 350 350 355 6 20 20 18 24 25 26
196 191 191 197 190 184 194 208 217 213 211 222 235 249 262 269 275 281 283 291 303 319 332 340 343 344 349 352 353 354 353 350 352 2 10 17 26 24 23 26 25 29
188 182 181 184 183 185 197 209 218 213 211 229 245 253 268 279 278 279 282 295 312 327 338 344 345 349 353 353 356 355 351 355 7 15 19 26 31 27 24 29 29 29
202 197 186 181 180 191 205 210 219 220 219 236 248 256 271 277 273 278 286 300 317 330 340 344 347 354 357 355 357 356 355 7 19 20 24 30 30 24 27 37 31 22
211 210 202 196 190 198 208 210 216 221 225 237 247 257 268 271 269 273 281 299 317 329 338 345 352 360 359 358 359 357 1 16 23 25 30 33 28 23 31 41 29 16
210 211 208 207 205 207 212 213 215 220 226 238 248 257 262 261 261 263 273 299 317 328 338 348 359 5 3 1 2 0 8 22 27 31 32 30 29 28 33 41 34 21
210 213 210 210 211 213 217 218 219 224 232 241 249 254 254 251 251 259 277 300 317 329 341 354 6 10 8 7 8 8 19 28 30 35 34 26 28 34 35 38 36 32
214 217 214 213 214 216 219 221 224 229 237 244 251 253 250 244 244 257 280 301 318 332 345 1 12 14 13 13 17 21 34 38 31 33 36 28 28 36 39 40 35 35
216 218 217 217 218 217 219 222 226 232 239 246 252 250 240 232 236 254 279 299 319 336 350 7 18 20 17 16 24 33 48 54 39 28 33 32 32 36 38 42 39 34
217 219 220 221 219 219 221 223 226 234 241 246 246 238 228 224 234 255 276 295 320 339 355 14 23 25 21 17 31 45 58 64 51 33 35 37 36 37 37 42 44 35
217 219 222 223 220 220 222 223 227 234 239 240 237 230 222 220 233 252 268 288 319 339 358 24 30 29 24 22 40 56 65 67 52 35 41 48 48 49 47 45 43 35
217 219 223 224 221 222 224 224 228 232 234 236 233 225 218 219 232 246 259 281 312 336 5 33 37 34 31 41 60 69 71 70 57 46 56 62 61 58 52 44 37 29
215 219 224 225 222 223 225 225 227 230 232 234 227 219 216 219 231 241 246 260 283 312 28 52 49 44 50 66 82 87 84 81 75 69 71 71 66 59 50 42 34 27
218 222 225 224 223 224 224 225 228 230 231 228 220 215 214 218 226 233 235 240 241 226 118 81 70 68 80 90 95 94 93 92 85 78 75 72 66 58 49 42 37 29
221 224 226 224 223 224 224 225 228 228 226 223 219 216 214 218 224 223 220 221 219 203 159 115 98 99 102 104 104 103 103 100 87 74 69 64 59 56 50 46 41 34
222 225 226 225 224 224 224 226 226 225 222 220 219 217 214 216 220 217 209 208 209 194 164 140 124 116 112 111 110 103 96 92 81 67 59 49 45 51 55 53 47 41
223 225 226 226 225 223 224 225 224 221 219 217 215 213 214 215 214 210 206 204 200 189 170 155 145 132 124 120 116 107 99 97 89 77 69 54 44 53 61 60 56 51
223 225 226 226 224 223 223 223 222 219 217 213 209 206 207 207 204 204 205 200 194 186 175 166 158 147 137 132 132 127 120 118 112 99 97 96 78 71 73 72 66 62
Height
1549 1550 1551 1552 1553 1555 1556 1558 1559 1560 1561 1561 1561 1562 1563 1564 1564 1564 1565 1564 1563 1563 1561 1561 1560 1558 1557 1556 1554 1552 1550 1547 1545 1543 1541 1540 1538 1536 1535 1534 1532 1530
1548 1549 1550 1552 1553 1554 1555 1557 1558 1559 1559 1560 1561 1562 1563 1564 1563 1563 1564 1563 1563 1562 1561 1560 1559 1557 1555 1554 1552 1550 1548 1545 1543 1541 1539 1538 1535 1534 1533 1532 1530 1527
1548 1549 1550 1551 1552 1553 1554 1556 1557 1558 1559 1560 1561 1561 1562 1563 1562 1561 1562 1562 1562 1561 1559 1558 1558 1556 1554 1551 1550 1549 1546 1543 1541 1540 1538 1536 1534 1533 1532 1530 1529 1526
1547 1548 1549 1551 1552 1553 1554 1555 1556 1557 1558 1559 1559 1560 1561 1561 1561 1560 1560 1560 1560 1560 1558 1556 1556 1555 1552 1550 1549 1547 1545 1542 1540 1539 1537 1535 1533 1532 1531 1529 1528 1526
1546 1547 1549 1551 1552 1552 1553 1554 1555 1556 1557 1558 1558 1559 1559 1559 1560 1560 1559 1559 1558 1558 1556 1555 1555 1553 1551 1549 1548 1545 1543 1541 1539 1537 1535 1534 1532 1531 1529 1528 1526 1525
1545 1547 1548 1550 1551 1552 1553 1554 1555 1556 1556 1557 1557 1557 1557 1557 1558 1559 1559 1558 1557 1556 1555 1554 1554 1552 1549 1548 1546 1544 1542 1540 1538 1537 1535 1533 1532 1530 1528 1527 1526 1524
1544 1546 1547 1549 1549 1550 1552 1553 1554 1555 1556 1555 1555 1555 1555 1556 1557 1557 1557 1557 1556 1555 1554 1553 1551 1549 1548 1546 1544 1542 1540 1539 1537 1536 1534 1533 1531 1530 1528 1527 1526 1525
1544 1544 1546 1547 1548 1549 1551 1552 1553 1554 1555 1553 1553 1554 1555 1555 1556 1555 1555 1555 1554 1554 1552 1551 1549 1547 1546 1545 1543 1541 1540 1538 1537 1535 1533 1532 1531 1530 1528 1527 1526 1525
1543 1543 1544 1546 1547 1549 1550 1551 1553 1553 1552 1551 1552 1554 1554 1554 1554 1553 1553 1553 1552 1552 1551 1550 1548 1546 1545 1543 1542 1540 1539 1537 1536 1534 1533 1531 1530 1530 1529 1528 1527 1526
1541 1541 1542 1545 1546 1549 1550 1551 1551 1550 1550 1550 1552 1552 1552 1553 1553 1552 1552 1551 1551 1551 1549 1548 1547 1546 1544 1543 1541 1540 1538 1537 1536 1534 1533 1531 1531 1530 1530 1529 1527 1526
1539 1540 1542 1544 1546 1548 1549 1549 1549 1548 1549 1550 1551 1551 1551 1552 1551 1550 1550 1549 1549 1549 1548 1547 1546 1545 1543 1542 1541 1540 1538 1537 1535 1534 1533 1532 1532 1531 1530 1530 1528 1527
1538 1539 1542 1543 1545 1547 1547 1547 1547 1548 1549 1549 1550 1550 1550 1550 1550 1549 1549 1548 1548 1548 1547 1546 1545 1544 1543 1542 1541 1539 1538 1537 1536 1534 1534 1533 1533 1532 1531 1530 1529 1528
1537 1539 1541 1543 1544 1545 1544 1545 1547 1547 1548 1549 1549 1549 1549 1549 1549 1548 1548 1548 1547 1547 1546 1546 1545 1544 1543 1542 1541 1539 1538 1537 1536 1535 1534 1534 1533 1533 1532 1531 1530 1529
1536 1538 1540 1542 1543 1542 1543 1545 1546 1546 1547 1548 1548 1548 1548 1548 1547 1547 1547 1547 1547 1546 1546 1545 1544 1544 1543 1542 1541 1540 1539 1538 1537 1536 1535 1535 1534 1533 1533 1532 1531 1530
1535 1537 1539 1540 1540 1541 1542 1544 1545 1546 1546 1546 1547 1546 1547 1546 1546 1546 1547 1546 1546 1546 1545 1545 1544 1543 1543 1542 1541 1540 1539 1538 1538 1537 1536 1535 1535 1534 1533 1533 1532 1531
1534 1535 1537 1538 1538 1540 1542 1543 1544 1544 1545 1545 1545 1545 1545 1545 1546 1546 1546 1546 1545 1545 1545 1545 1544 1543 1543 1542 1541 1540 1540 1539 1539 1538 1537 1536 1535 1534 1534 1533 1532 1532
1532 1534 1535 1536 1537 1539 1541 1541 1542 1543 1543 1543 1544 1544 1544 1545 1545 1545 1545 1545 1545 1545 1545 1544 1544 1543 1542 1542 1541 1541 1540 1540 1539 1539 1538 1537 1536 1535 1534 1533 1533 1533
1531 1532 1533 1534 1536 1538 1539 1540 1541 1541 1542 1542 1542 1543 1544 1544 1545 1545 1544 1544 1544 1544 1545 1544 1543 1543 1542 1542 1541 1541 1541 1540 1540 1539 1538 1537 1536 1535 1535 1534 1533 1533
1529 1530 1531 1533 1535 1537 1538 1538 1539 1540 1541 1541 1541 1542 1543 1543 1544 1544 1544 1544 1544 1544 1544 1544 1543 1543 1543 1542 1542 1541 1541 1540 1540 1540 1539 1538 1537 1536 1536 1535 1534 1533
1527 1528 1530 1532 1534 1535 1536 1537 1538 1539 1540 1540 1541 1541 1542 1543 1543 1543 1544 1544 1544 1544 1544 1544 1543 1543 1543 1542 1542 1541 1541 1541 1541 1541 1540 1539 1538 1537 1537 1536 1535 1533
1525 1526 1529 1531 1532 1533 1534 1536 1537 1538 1538 1539 1540 1541 1541 1542 1542 1543 1543 1544 1544 1544 1544 1544 1544 1544 1543 1543 1542 1542 1541 1541 1542 1541 1541 1540 1539 1539 1538 1537 1535 1534
1523 1525 1527 1529 1530 1532 1533 1534 1535 1536 1537 1538 1539 1540 1541 1541 1542 1543 1543 1543 1544 1544 1544 1544 1544 1544 1544 1543 1543 1542 1542 1542 1542 1542 1542 1541 1540 1539 1539 1537 1536 1535
1521 1523 1525 1527 1528 1530 1531 1533 1534 1535 1536 1537 1538 1539 1540 1541 1541 1542 1543 1543 1543 1544 1544 1544 1544 1544 1544 1544 1543 1543 1542 1543 1543 1543 1542 1542 1541 1540 1539 1538 1537 1536
1520 1521 1523 1525 1527 1528 1530 1531 1532 1534 1535 1536 1537 1538 1539 1540 1541 1542 1543 1543 1543 1544 1544 1544 1545 1545 1544 1544 1544 1544 1543 1543 1544 1543 1543 1543 1542 1541 1540 1539 1538 1537
1518 1520 1521 1523 1525 1526 1528 1530 1531 1532 1533 1535 1536 1538 1539 1540 1541 1542 1543 1543 1543 1544 1544 1545 1545 1545 1545 1545 1545 1545 1544 1545 1545 1545 1544 1544 1544 1543 1542 1541 1540 1539
1516 1518 1520 1521 1523 1525 1527 1528 1529 1531 1532 1534 1536 1537 1539 1540 1541 1542 1543 1544 1544 1544 1544 1545 1545 1545 1545 1545 1545 1545 1545 1546 1546 1546 1545 1546 1545 1543 1543 1542 1541 1540